Flag for Germany Weather past 2 weeks in Bietigheim-Bissingen, Baden-Württemberg, Germany

Now
65 °F

Overcast.


Feels Like: 65 °F
Forecast: 41 / 54 °F
Wind: 5 mph from North

Location: Stuttgart-Echterdingen

Current Time: Apr 27, 2015 at 6:02:23 PM

Latest Report: Apr 27, 2015 at 4:00 PM


Visibility: 37 mi

Pressure: 29.54 "Hg

Humidity: 58%

Dew point: 49 °F

Location of Bietigheim-BissingenLocation

Historic Weather in Bietigheim-Bissingen — Graph

°F

Bietigheim-Bissingen temperature yesterday

Maximum temperature yesterday: 69 °F (at 4:00 PM)
Minimum temperature yesterday: 52 °F (at 7:00 AM)
Average temperature yesterday: 61 °F

Past Weeks' High & Low Weather Summary

 TemperatureHumidityPressure
High77 °F (Apr 15, 4:00 PM)89% (Apr 26, 7:00 AM)30.47 "Hg (Apr 26, 7:00 AM)
Low34 °F (Apr 23, 7:00 AM)17% (Apr 15, 3:00 PM)29.54 "Hg (Apr 27, 4:00 PM)
Average54 °F56%30.11 "Hg
* Reported Apr 12 4:00 PM — Apr 27 4:00 PM, Bietigheim-Bissingen, Weather by CustomWeather, © 2015

Note: Actual official high and low records may vary slightly from our data, if they occured in-between our weather recording intervals... More about our weather records

Advertising

Bietigheim-Bissingen weather history for previous 24 hours

 ConditionsComfort  
Time TempWeatherWind HumidityBarometerVisibility
4:00 PM
Mon, Apr 27
65 °FOvercast.5 mph58%29.54 "Hg37 mi
3:00 PM63 °FOvercast.7 mph60%29.56 "Hg37 mi
2:00 PM64 °FOvercast.6 mph60%29.56 "Hg37 mi
1:00 PM64 °FOvercast.6 mph62%29.57 "Hg37 mi
12:00 PM63 °FOvercast.5 mph62%29.58 "Hg37 mi
10:00 AM60 °FOvercast.1 mph72%29.59 "Hg31 mi
9:00 AM58 °FPartly sunny.1 mph81%29.59 "Hg31 mi
8:00 AM58 °FPartly sunny.1 mph80%29.60 "Hg37 mi
7:00 AM53 °FPartly sunny.1 mph88%29.60 "Hg37 mi
6:00 AM52 °FPassing clouds.2 mph87%29.61 "Hg34 mi
4:00 AM54 °FPassing clouds.2 mph81%29.61 "Hg28 mi
3:00 AM56 °FOvercast.5 mph82%29.62 "Hg28 mi
2:00 AM57 °FOvercast.1 mph82%29.62 "Hg28 mi
1:00 AM58 °FOvercast.1 mph84%29.65 "Hg28 mi
12:00 AM60 °FLight rain. Overcast.1 mph76%29.64 "Hg25 mi
10:00 PM
Sun, Apr 26
63 °FSprinkles. Overcast.1 mph62%29.66 "Hg22 mi
9:00 PM63 °FOvercast.1 mph59%29.64 "Hg43 mi
8:00 PM65 °FOvercast.2 mph57%29.63 "Hg43 mi
7:00 PM67 °FOvercast.2 mph48%29.64 "Hg43 mi
6:00 PM68 °FOvercast.5 mph47%29.65 "Hg43 mi
Weather by CustomWeather, © 2015

See weather overviewHow to use our weather pages